Airport Information

KSLE - McNary Field Airport

KSLE 251056Z AUTO 00000KT 10SM CLR 07/03 A2995 RMK AO2 SLP143 T00670028


  • General Information

  • Coordinates: N 44°54'34"/ W 123°0'10"
  • Location: N/A
  • Surveyed Elevation: 214 MSL

Operations

Flow Name Active Runways Conditions

Green background denotes normal operations.


Common Frequencies

Callsign Frequency Position Name

More at the Document Center


Charts